Wind_Speed
20 21 22 22 23 23 23 24 25 26 28 29 29 29 30 32 34 35 36 37 37 37 38 38 38 40 41 41 40 41 41 42 43 43 44 44 42 41
23 24 25 25 25 25 25 26 26 27 29 31 31 32 33 34 35 37 39 40 41 41 42 42 42 42 42 43 43 43 43 43 44 44 45 46 45 44
26 27 27 27 28 28 28 28 28 29 29 31 33 33 34 35 37 38 39 41 43 44 44 45 46 46 45 45 45 45 45 45 46 46 45 45 46 47
28 29 29 30 30 30 30 30 30 31 31 32 33 35 35 36 37 38 39 41 43 45 47 48 49 49 49 48 48 48 48 47 47 48 47 47 46 47
30 31 32 32 32 32 32 32 32 33 33 33 34 35 36 37 37 37 39 40 42 44 47 49 50 51 52 51 51 50 50 50 49 49 50 50 49 49
33 33 33 33 33 33 34 34 34 34 35 35 35 36 37 38 38 38 38 39 41 43 45 48 50 52 53 53 53 53 53 53 52 51 51 51 51 50
35 34 34 34 35 35 35 35 35 35 36 36 36 37 38 39 39 39 38 39 40 41 43 46 48 51 52 54 55 55 55 54 54 54 53 53 52 52
37 36 36 36 36 37 37 37 37 37 38 38 37 37 38 39 39 39 38 38 39 41 42 43 46 48 51 53 54 55 56 56 56 56 55 54 54 53
39 39 38 38 38 38 38 38 38 39 39 39 38 39 39 39 39 39 38 38 38 40 41 41 43 45 47 50 52 54 55 56 57 57 57 56 55 55
41 41 41 40 40 40 40 40 40 40 41 40 39 39 39 39 39 38 38 38 38 39 40 39 41 43 45 47 49 51 53 55 56 57 58 58 58 57
44 44 44 43 43 43 42 41 41 41 41 41 40 39 39 39 39 38 38 38 37 38 39 39 40 42 43 45 47 49 51 53 54 55 57 58 59 58
46 47 46 45 45 45 44 43 42 42 42 42 41 40 39 39 39 38 38 38 37 36 38 39 39 41 41 43 45 47 49 51 52 53 55 57 58 59
49 49 49 48 47 47 46 45 43 43 42 42 41 40 39 38 38 38 37 37 36 36 37 38 38 39 40 41 43 45 47 48 50 52 53 54 56 57
52 52 51 50 50 49 47 46 46 44 43 42 41 40 39 39 39 38 37 36 36 35 36 37 38 39 39 40 42 44 46 47 48 50 51 53 54 55
56 55 53 52 52 51 49 48 47 46 44 42 41 40 40 40 39 38 37 36 35 35 36 37 38 39 39 39 40 43 45 46 47 48 50 51 53 54
59 58 56 55 54 53 51 50 49 47 45 43 41 41 40 40 39 38 37 37 36 35 35 36 37 37 38 39 39 41 43 44 46 48 49 50 50 52
62 61 59 57 56 55 53 52 50 48 46 43 42 41 40 40 39 38 37 37 35 35 35 36 36 37 37 37 38 39 41 43 45 47 48 49 49 50
65 63 62 60 58 56 54 52 51 48 46 44 42 41 40 39 38 38 37 36 35 34 34 36 37 37 36 36 37 38 40 43 45 47 48 48 48 49
67 65 62 60 58 56 54 52 50 47 45 43 41 40 39 39 38 37 37 36 35 34 34 35 36 36 36 36 36 38 40 42 44 45 47 47 48 49
66 63 61 59 56 54 51 49 48 45 43 42 40 39 39 38 37 36 36 35 34 34 34 34 35 36 36 36 36 38 39 40 42 44 45 46 47 48
59 56 54 52 50 48 47 46 44 42 40 39 38 38 38 37 36 35 34 34 34 34 34 34 35 36 36 35 35 35 37 39 40 42 44 45 46 47
50 47 45 43 42 41 41 41 40 37 36 36 37 37 36 35 34 34 33 33 33 33 33 34 35 35 34 34 34 35 36 37 38 39 41 43 44 45
39 37 36 35 34 34 34 34 34 33 34 34 35 35 34 34 33 33 32 33 33 33 33 33 34 34 33 32 32 33 35 36 37 37 38 40 42 44
Wind_Direction
312 312 311 309 306 303 300 297 295 294 291 288 284 279 275 271 267 264 262 260 258 255 253 251 249 247 245 245 245 243 240 238 237 237 236 235 235 236
308 309 308 308 306 304 301 298 296 294 292 290 286 282 278 274 270 266 263 260 259 257 254 252 250 249 246 245 244 243 241 239 238 237 236 236 236 236
306 307 307 306 305 304 302 299 297 295 294 292 289 286 283 279 274 269 265 261 259 257 255 253 251 249 247 246 245 243 242 241 239 236 236 236 236 236
306 307 306 305 304 304 302 300 298 297 295 293 291 289 287 283 278 273 269 265 261 258 255 253 251 249 247 246 245 243 242 241 240 238 237 236 236 237
304 305 305 305 304 304 302 301 299 298 296 295 293 292 290 286 282 278 274 270 265 261 257 254 251 249 247 246 244 243 243 241 240 239 238 237 236 236
303 303 304 304 303 303 303 301 300 299 298 297 295 293 290 288 284 280 276 273 269 264 260 256 253 250 248 246 245 243 242 241 240 239 239 238 237 237
302 302 302 302 303 303 302 301 301 300 299 298 297 294 291 288 285 282 278 275 272 268 263 258 254 251 249 246 245 243 242 241 240 239 239 238 238 238
301 302 301 301 301 301 301 300 300 300 300 299 298 295 292 288 285 283 279 276 273 269 265 260 255 252 250 247 245 244 243 241 240 239 238 238 238 238
300 300 300 300 300 300 299 299 299 299 300 299 297 295 292 289 285 283 280 277 273 269 266 261 257 253 251 248 246 244 243 242 240 239 238 237 237 237
298 298 299 299 299 299 298 298 298 298 298 298 297 294 292 288 285 283 281 277 273 269 265 261 259 256 252 250 247 245 244 242 241 240 238 237 237 237
296 296 296 296 297 297 297 297 296 296 297 297 296 294 291 288 285 282 280 277 273 269 266 261 258 256 254 251 249 246 244 242 242 241 239 238 237 237
294 294 294 294 295 295 296 295 295 295 295 295 294 293 290 287 285 282 279 276 272 268 266 263 259 256 253 252 250 248 245 243 241 240 239 239 237 236
292 293 293 293 293 293 294 294 294 293 293 293 292 292 289 287 285 282 279 276 272 268 265 263 261 258 253 250 250 249 247 244 242 240 239 238 238 236
291 291 291 290 290 290 291 292 292 292 291 290 290 289 287 286 284 282 279 276 272 269 266 263 261 258 255 251 248 248 248 245 243 241 239 237 237 236
288 288 288 288 288 288 288 289 289 289 289 288 287 286 285 284 282 281 278 275 272 270 266 263 260 258 256 253 249 248 247 246 244 241 239 237 236 235
286 286 285 285 285 285 286 286 286 286 286 285 283 283 282 282 281 279 277 275 272 270 267 264 261 259 257 254 251 248 247 246 245 243 239 238 236 235
284 283 283 283 282 282 282 282 282 282 283 281 281 280 280 280 280 278 276 274 273 270 267 264 261 259 257 255 252 249 247 245 245 244 241 238 236 235
281 281 281 280 280 279 278 277 278 278 278 278 277 277 278 278 278 277 276 274 272 268 265 264 262 260 257 255 253 250 248 245 244 243 242 239 237 235
280 280 278 278 277 275 274 274 274 273 273 274 274 274 276 276 275 275 274 273 271 268 265 263 262 261 258 255 253 251 249 247 245 243 242 240 237 234
279 278 276 275 274 272 270 270 270 269 269 269 270 272 274 274 274 273 272 271 270 267 265 264 263 262 259 257 253 252 250 248 245 243 240 239 237 233
278 276 274 273 271 269 267 266 265 265 266 266 267 270 272 272 272 271 270 270 269 268 266 265 264 263 261 259 255 252 250 248 245 242 240 238 236 234
278 275 271 270 268 266 265 263 260 261 263 264 267 269 270 270 270 270 269 269 269 268 267 265 264 263 262 259 254 250 248 247 244 241 239 237 236 233
276 272 269 267 264 262 260 258 257 259 261 264 266 267 268 269 269 269 269 269 269 268 267 265 264 263 262 259 255 250 247 245 243 240 237 235 234 231
Height
5833 5831 5829 5827 5825 5823 5821 5819 5818 5816 5814 5812 5812 5812 5812 5812 5812 5812 5813 5814 5815 5817 5819 5821 5823 5825 5828 5831 5834 5837 5841 5845 5849 5854 5858 5863 5867 5871
5828 5825 5823 5821 5818 5816 5814 5812 5810 5809 5806 5804 5803 5802 5802 5801 5801 5802 5802 5803 5804 5806 5808 5810 5812 5815 5818 5821 5824 5827 5831 5835 5839 5844 5848 5853 5857 5862
5821 5819 5816 5814 5811 5809 5806 5804 5802 5801 5799 5796 5793 5792 5791 5790 5790 5790 5790 5791 5792 5794 5795 5798 5800 5803 5806 5809 5813 5817 5820 5824 5828 5833 5837 5842 5847 5852
5814 5812 5809 5806 5803 5801 5798 5796 5794 5792 5790 5787 5784 5781 5780 5779 5778 5777 5777 5778 5779 5780 5782 5784 5787 5790 5793 5797 5801 5804 5809 5813 5817 5822 5827 5831 5836 5841
5807 5804 5801 5798 5795 5792 5789 5787 5784 5782 5779 5777 5774 5771 5769 5767 5766 5766 5765 5765 5766 5767 5768 5770 5773 5776 5779 5783 5787 5792 5796 5801 5805 5810 5814 5819 5824 5829
5798 5796 5792 5789 5786 5783 5780 5777 5774 5772 5769 5766 5764 5761 5758 5756 5754 5754 5753 5752 5753 5753 5754 5756 5758 5761 5765 5769 5774 5778 5782 5787 5792 5797 5802 5807 5812 5817
5789 5787 5783 5780 5777 5774 5771 5767 5764 5761 5758 5755 5753 5750 5747 5744 5742 5741 5741 5740 5740 5740 5740 5742 5744 5747 5750 5754 5758 5763 5768 5773 5778 5784 5789 5794 5800 5805
5780 5777 5774 5771 5767 5764 5761 5757 5754 5751 5747 5744 5742 5739 5735 5732 5730 5729 5728 5728 5727 5727 5727 5728 5730 5732 5735 5739 5743 5748 5753 5758 5764 5769 5775 5781 5786 5792
5770 5767 5764 5760 5757 5754 5750 5747 5743 5740 5737 5734 5731 5727 5724 5720 5718 5717 5716 5715 5715 5714 5714 5716 5716 5719 5721 5724 5729 5733 5738 5743 5749 5755 5761 5767 5773 5779
5759 5756 5753 5749 5746 5743 5739 5736 5732 5728 5725 5722 5719 5716 5712 5709 5706 5705 5704 5703 5703 5702 5702 5704 5704 5705 5708 5711 5715 5719 5724 5729 5734 5740 5746 5752 5758 5765
5747 5744 5740 5738 5734 5730 5727 5724 5721 5716 5713 5710 5707 5704 5700 5697 5695 5693 5692 5691 5691 5690 5689 5691 5692 5693 5695 5698 5701 5705 5709 5714 5720 5725 5731 5737 5743 5750
5734 5731 5728 5724 5721 5717 5714 5711 5708 5705 5701 5698 5694 5691 5688 5685 5683 5681 5680 5678 5678 5679 5677 5678 5679 5681 5684 5686 5688 5691 5695 5700 5705 5711 5716 5722 5728 5735
5720 5717 5714 5710 5707 5704 5701 5698 5695 5692 5688 5685 5682 5679 5676 5673 5671 5669 5668 5667 5667 5667 5666 5666 5667 5668 5671 5674 5676 5679 5682 5686 5691 5697 5702 5708 5714 5721
5705 5702 5699 5696 5692 5689 5686 5684 5681 5678 5675 5673 5670 5667 5664 5661 5659 5657 5656 5655 5655 5655 5654 5654 5655 5656 5658 5662 5665 5666 5669 5673 5678 5683 5688 5694 5700 5706
5688 5686 5683 5680 5676 5674 5672 5669 5666 5664 5661 5659 5657 5654 5651 5649 5647 5645 5644 5643 5643 5643 5642 5642 5643 5645 5646 5649 5652 5654 5657 5660 5665 5669 5674 5680 5686 5692
5670 5668 5665 5663 5660 5658 5656 5653 5651 5649 5647 5645 5644 5642 5639 5637 5635 5633 5632 5631 5631 5631 5630 5630 5631 5633 5635 5637 5639 5642 5645 5648 5652 5655 5661 5666 5672 5679
5650 5648 5647 5645 5643 5641 5639 5637 5635 5634 5632 5631 5630 5628 5626 5625 5623 5621 5620 5620 5620 5620 5619 5619 5619 5621 5623 5625 5627 5630 5632 5635 5638 5642 5647 5654 5660 5665
5629 5628 5627 5625 5624 5622 5621 5620 5619 5618 5617 5616 5616 5615 5613 5612 5611 5609 5609 5608 5608 5608 5608 5607 5608 5609 5611 5614 5616 5617 5620 5623 5626 5629 5634 5641 5647 5653
5607 5606 5605 5604 5603 5603 5602 5602 5602 5602 5601 5602 5602 5601 5600 5599 5598 5597 5597 5596 5596 5596 5596 5596 5596 5597 5599 5602 5603 5605 5607 5610 5613 5618 5623 5628 5634 5640
5584 5583 5582 5582 5582 5583 5584 5584 5585 5586 5586 5587 5588 5588 5587 5587 5586 5586 5585 5584 5584 5585 5585 5585 5585 5585 5587 5589 5591 5593 5595 5598 5601 5605 5610 5615 5621 5627
5562 5561 5561 5561 5562 5564 5565 5567 5569 5570 5571 5573 5574 5574 5574 5574 5574 5574 5573 5573 5573 5573 5573 5574 5573 5573 5574 5577 5580 5582 5583 5585 5589 5593 5597 5603 5609 5615
5542 5542 5542 5544 5545 5547 5549 5551 5553 5556 5558 5560 5561 5562 5562 5562 5562 5562 5562 5562 5561 5561 5562 5562 5562 5562 5563 5565 5567 5569 5571 5574 5577 5581 5586 5591 5596 5603
5526 5526 5528 5529 5531 5533 5536 5538 5541 5543 5546 5548 5549 5550 5550 5550 5550 5550 5550 5550 5550 5550 5550 5551 5551 5551 5552 5554 5556 5558 5560 5563 5566 5570 5575 5580 5585 5592